sat.trackr.live / text

‹ back to catalog

FLOCK 4BE-20

NORAD 60489 · 2024-149X

PAYLOAD ACTIVE UNKNOWN

§ Identity

Operator
Country
US
Launch date
2024-08-16
Launch site
AFWTR
Launch vehicle
Mass (kg)
RCS (m²)

Purposes: earth_obs

External: N2YO · Heavens-Above · Gunter

§ Orbital elements

Epoch: 2026-09-19T04:31:37.951680Z

Period
93.25 min
Inclination
97.3621°
Eccentricity
0.0003989
Mean motion
15.44196442 rev/d
Perigee alt
431.0 km
Apogee alt
436.5 km
Semi-major
6,811.9 km
B*
1.0677e-3
RAAN
344.8824°
Arg perigee
250.9223°
Mean anomaly
109.1594°
Rev number
11,668

§ Raw data

FLOCK 4BE-201 60489U 24149X   26262.18863370  .00049154  00000+0  10677-2 0  99962 60489  97.3621 344.8824 0003989 250.9223 109.1594 15.44196442116683

JSON: /api/v1/satellites/60489 · /tle

For live sub-satellite position, see the globe view (requires WebGL).

§ Visibility from observer

Set your observer location to see the next 7 days of passes ≥ 10°. The values pass through the URL so the page stays shareable.

No JS? Fill the form by hand. The geolocation button needs JavaScript.